Location: 10033 Water Well
(34.0865°N, 106.8959°W)
Time: 16:33:56
(UTC+00:00)

RESURS DK-1 - Pass Details

Date: 13 January 2026
Orbit: 525 x 531 km, 69.9° (Epoch: 11 February)

Event Time Altitude Azimuth Distance (km) Brightness Sun altitude
Rises 01:17:06 0° 180° (S) 2,654 6.1 -12.0°
Reaches altitude 10° 01:19:25 10° 170° (S) 1,770 5.0 -12.5°
Maximum altitude 01:22:56 31° 107° (ESE) 942 3.1 -13.2°
Enters shadow 01:24:38 22° 63° (ENE) 1,193 3.4 -13.5°
